| time (UTC) | temp F | wind direction | speed MPH | gust MPH | rain 1hr in | rain 24hr in | rain mn in | humidity % | barometer mb |
| 20260507114559 | 48 | 41 | 0.0 | 5.0 | 0.00 | 0.04 | 0.02 | 97 | 1006.9 |
| 20260507113101 | 48 | 209 | 0.0 | 2.0 | 0.00 | 0.04 | 0.02 | 97 | 1006.6 |
| 20260507111556 | 47 | 76 | 0.0 | 2.0 | 0.00 | 0.04 | 0.02 | 97 | 1006.6 |
| 20260507110055 | 47 | 76 | 0.0 | 2.0 | 0.00 | 0.04 | 0.02 | 96 | 1006.4 |
| 20260507104554 | 47 | 75 | 0.0 | 2.0 | 0.00 | 0.04 | 0.02 | 96 | 1006.6 |
| 20260507103053 | 47 | 161 | 0.0 | 2.0 | 0.00 | 0.04 | 0.02 | 96 | 1006.2 |
| 20260507101556 | 47 | 192 | 0.0 | 2.0 | 0.00 | 0.04 | 0.02 | 95 | 1006.1 |
| 20260507100053 | 47 | 46 | 0.0 | 2.0 | 0.00 | 0.04 | 0.02 | 95 | 1006.0 |
| 20260507094551 | 47 | 24 | 0.0 | 2.0 | 0.01 | 0.04 | 0.02 | 94 | 1005.9 |
| 20260507093053 | 47 | 355 | 0.0 | 2.0 | 0.01 | 0.04 | 0.02 | 94 | 1006.0 |
| 20260507091548 | 48 | 32 | 0.0 | 2.0 | 0.01 | 0.04 | 0.02 | 93 | 1006.0 |
| 20260507090047 | 48 | 333 | 0.0 | 2.0 | 0.01 | 0.04 | 0.02 | 92 | 1006.5 |
| 20260507084550 | 48 | 261 | 1.0 | 3.0 | 0.00 | 0.03 | 0.01 | 92 | 1006.4 |
| 20260507083044 | 48 | 275 | 1.0 | 2.0 | 0.00 | 0.03 | 0.01 | 91 | 1006.4 |
| 20260507081543 | 48 | 263 | 0.0 | 2.0 | 0.00 | 0.03 | 0.01 | 90 | 1006.0 |
| 20260507080042 | 48 | 350 | 0.0 | 2.0 | 0.00 | 0.03 | 0.01 | 89 | 1006.2 |
| 20260507074540 | 49 | 5 | 0.0 | 2.0 | 0.00 | 0.03 | 0.01 | 87 | 1006.1 |
| 20260507073038 | 50 | 324 | 0.0 | 2.0 | 0.00 | 0.03 | 0.01 | 84 | 1006.1 |
| 20260507071600 | 50 | 344 | 0.0 | 4.0 | 0.00 | 0.03 | 0.01 | 81 | 1005.5 |
| 20260507070035 | 51 | 26 | 1.0 | 6.0 | 0.00 | 0.03 | 0.01 | 81 | 1005.3 |
| 20260507064535 | 51 | 282 | 0.0 | 3.0 | 0.00 | 0.03 | 0.01 | 81 | 1005.4 |
| 20260507063037 | 51 | 199 | 0.0 | 4.0 | 0.00 | 0.03 | 0.01 | 81 | 1005.5 |
| 20260507061530 | 52 | 121 | 0.0 | 4.0 | 0.00 | 0.03 | 0.01 | 83 | 1005.5 |
| 20260507060037 | 53 | 309 | 0.0 | 6.0 | 0.00 | 0.03 | 0.01 | 86 | 1005.5 |
| 20260507054527 | 53 | 290 | 1.0 | 3.0 | 0.00 | 0.03 | 0.01 | 87 | 1005.7 |
| 20260507053039 | 53 | 308 | 0.0 | 3.0 | 0.01 | 0.03 | 0.01 | 87 | 1006.0 |
| 20260507051531 | 54 | 18 | 0.0 | 7.0 | 0.01 | 0.03 | 0.01 | 87 | 1005.8 |
| 20260507050029 | 54 | 263 | 0.0 | 2.0 | 0.01 | 0.03 | 0.01 | 88 | 1005.5 |
| 20260507044522 | 55 | 18 | 1.0 | 3.0 | 0.01 | 0.03 | 0.01 | 91 | 1005.7 |
| 20260507043018 | 56 | 202 | 0.0 | 3.0 | 0.00 | 0.02 | 0.00 | 91 | 1005.5 |
| 20260507041517 | 56 | 227 | 0.0 | 7.0 | 0.00 | 0.02 | 0.00 | 90 | 1005.5 |
| 20260507040015 | 57 | 203 | 1.0 | 4.0 | 0.00 | 0.02 | 0.02 | 91 | 1005.5 |
| 20260507034528 | 57 | 227 | 1.0 | 9.0 | 0.00 | 0.02 | 0.02 | 90 | 1005.4 |
| 20260507033018 | 58 | 324 | 2.0 | 7.0 | 0.00 | 0.02 | 0.02 | 95 | 1004.9 |
| 20260507031513 | 58 | 216 | 1.0 | 3.0 | 0.00 | 0.02 | 0.02 | 96 | 1004.9 |
| 20260507030011 | 58 | 207 | 1.0 | 5.0 | 0.00 | 0.02 | 0.02 | 96 | 1004.9 |
| 20260507024512 | 58 | 186 | 4.0 | 8.0 | 0.00 | 0.02 | 0.02 | 96 | 1004.4 |
| 20260507023020 | 58 | 159 | 2.0 | 7.0 | 0.00 | 0.02 | 0.02 | 96 | 1004.7 |
| 20260507021510 | 58 | 235 | 2.0 | 9.0 | 0.00 | 0.02 | 0.02 | 96 | 1004.5 |
| 20260507020012 | 58 | 217 | 3.0 | 8.0 | 0.00 | 0.02 | 0.02 | 96 | 1004.8 |
| 20260507014512 | 58 | 172 | 2.0 | 7.0 | 0.00 | 0.02 | 0.02 | 96 | 1004.5 |
| 20260507013007 | 58 | 149 | 3.0 | 9.0 | 0.00 | 0.02 | 0.02 | 96 | 1004.5 |
| 20260507011506 | 58 | 182 | 3.0 | 10.0 | 0.00 | 0.02 | 0.02 | 96 | 1004.9 |
| 20260507010006 | 58 | 159 | 2.0 | 9.0 | 0.00 | 0.02 | 0.02 | 96 | 1004.9 |
| 20260507004504 | 58 | 173 | 4.0 | 10.0 | 0.00 | 0.02 | 0.02 | 96 | 1004.8 |
| 20260507003003 | 58 | 185 | 3.0 | 9.0 | 0.00 | 0.02 | 0.02 | 96 | 1004.7 |
| 20260507001501 | 58 | 163 | 4.0 | 9.0 | 0.00 | 0.02 | 0.02 | 97 | 1004.5 |
| 20260507000002 | 58 | 149 | 3.0 | 8.0 | 0.00 | 0.02 | 0.02 | 97 | 1004.4 |
| 20260506234603 | 58 | 181 | 2.0 | 8.0 | 0.01 | 0.02 | 0.02 | 97 | 1004.4 |
| 20260506233059 | 58 | 170 | 3.0 | 7.0 | 0.01 | 0.02 | 0.02 | 96 | 1004.3 |
| 20260506231602 | 58 | 163 | 3.0 | 12.0 | 0.01 | 0.02 | 0.02 | 96 | 1004.4 |
| 20260506230058 | 58 | 172 | 2.0 | 8.0 | 0.01 | 0.02 | 0.02 | 96 | 1004.4 |
| 20260506224556 | 58 | 166 | 1.0 | 7.0 | 0.00 | 0.01 | 0.01 | 95 | 1004.4 |
| 20260506223055 | 58 | 148 | 3.0 | 8.0 | 0.00 | 0.01 | 0.01 | 94 | 1004.5 |
| 20260506221553 | 58 | 144 | 2.0 | 12.0 | 0.00 | 0.01 | 0.01 | 93 | 1004.7 |
| 20260506220054 | 59 | 136 | 3.0 | 8.0 | 0.00 | 0.01 | 0.01 | 93 | 1004.8 |
| 20260506214602 | 59 | 179 | 3.0 | 10.0 | 0.00 | 0.01 | 0.01 | 92 | 1004.9 |
| 20260506213051 | 59 | 255 | 1.0 | 8.0 | 0.00 | 0.01 | 0.01 | 91 | 1005.1 |
| 20260506211550 | 59 | 105 | 4.0 | 12.0 | 0.00 | 0.01 | 0.01 | 90 | 1005.1 |
| 20260506210050 | 59 | 211 | 6.0 | 16.0 | 0.00 | 0.01 | 0.01 | 90 | 1005.3 |
| 20260506204551 | 59 | 153 | 4.0 | 10.0 | 0.00 | 0.01 | 0.01 | 89 | 1005.4 |
| 20260506203047 | 59 | 150 | 3.0 | 7.0 | 0.00 | 0.01 | 0.01 | 88 | 1005.4 |
| 20260506201547 | 59 | 169 | 4.0 | 13.0 | 0.01 | 0.01 | 0.01 | 88 | 1005.4 |
| 20260506200049 | 59 | 194 | 2.0 | 15.0 | 0.01 | 0.01 | 0.01 | 89 | 1005.4 |
| 20260506194546 | 60 | 171 | 5.0 | 13.0 | 0.01 | 0.01 | 0.01 | 88 | 1005.4 |
| 20260506193052 | 60 | 176 | 4.0 | 12.0 | 0.01 | 0.01 | 0.01 | 88 | 1005.5 |
| 20260506191548 | 61 | 159 | 3.0 | 14.0 | 0.00 | 0.00 | 0.00 | 85 | 1005.5 |
| 20260506190041 | 62 | 157 | 5.0 | 13.0 | 0.00 | 0.00 | 0.00 | 83 | 1005.5 |
| 20260506184543 | 63 | 149 | 2.0 | 14.0 | 0.00 | 0.00 | 0.00 | 79 | 1005.8 |
| 20260506183040 | 65 | 218 | 4.0 | 13.0 | 0.00 | 0.00 | 0.00 | 73 | 1006.2 |
| 20260506181549 | 66 | 194 | 5.0 | 15.0 | 0.00 | 0.00 | 0.00 | 68 | 1005.9 |
| 20260506180055 | 68 | 190 | 6.0 | 15.0 | 0.00 | 0.00 | 0.00 | 63 | 1005.9 |
| 20260506174539 | 69 | 207 | 5.0 | 21.0 | 0.00 | 0.00 | 0.00 | 59 | 1005.9 |
| 20260506173042 | 70 | 159 | 10.0 | 22.0 | 0.00 | 0.00 | 0.00 | 55 | 1005.8 |
| 20260506171539 | 71 | 182 | 5.0 | 23.0 | 0.00 | 0.00 | 0.00 | 54 | 1006.0 |
| 20260506170037 | 71 | 221 | 7.0 | 17.0 | 0.00 | 0.00 | 0.00 | 54 | 1006.0 |
| 20260506164535 | 71 | 163 | 4.0 | 22.0 | 0.00 | 0.00 | 0.00 | 55 | 1006.4 |
| 20260506163038 | 70 | 177 | 7.0 | 19.0 | 0.00 | 0.00 | 0.00 | 55 | 1006.4 |
| 20260506161535 | 70 | 202 | 7.0 | 21.0 | 0.00 | 0.00 | 0.00 | 55 | 1006.9 |
| 20260506160031 | 70 | 169 | 8.0 | 17.0 | 0.00 | 0.00 | 0.00 | 56 | 1006.9 |
| 20260506154529 | 69 | 156 | 8.0 | 16.0 | 0.00 | 0.00 | 0.00 | 58 | 1007.1 |
| 20260506153028 | 69 | 303 | 7.0 | 16.0 | 0.00 | 0.00 | 0.00 | 59 | 1007.4 |
| 20260506151528 | 69 | 175 | 3.0 | 15.0 | 0.00 | 0.00 | 0.00 | 60 | 1007.5 |
| 20260506150027 | 69 | 202 | 5.0 | 14.0 | 0.00 | 0.00 | 0.00 | 61 | 1007.5 |
| 20260506144524 | 68 | 155 | 5.0 | 12.0 | 0.00 | 0.00 | 0.00 | 62 | 1007.6 |
| 20260506143026 | 67 | 157 | 2.0 | 12.0 | 0.00 | 0.00 | 0.00 | 65 | 1007.5 |
| 20260506141528 | 66 | 220 | 4.0 | 15.0 | 0.00 | 0.00 | 0.00 | 66 | 1007.5 |
| 20260506140020 | 66 | 236 | 3.0 | 14.0 | 0.00 | 0.00 | 0.00 | 68 | 1007.8 |
| 20260506134517 | 65 | 181 | 5.0 | 12.0 | 0.00 | 0.00 | 0.00 | 69 | 1007.5 |
| 20260506133017 | 64 | 238 | 3.0 | 9.0 | 0.00 | 0.00 | 0.00 | 71 | 1008.1 |
| 20260506131513 | 64 | 107 | 4.0 | 12.0 | 0.00 | 0.00 | 0.00 | 72 | 1008.2 |
| 20260506130017 | 63 | 167 | 3.0 | 14.0 | 0.00 | 0.00 | 0.00 | 73 | 1008.0 |
| 20260506124512 | 63 | 227 | 1.0 | 14.0 | 0.00 | 0.00 | 0.00 | 73 | 1008.1 |
| 20260506123014 | 62 | 150 | 5.0 | 13.0 | 0.00 | 0.00 | 0.00 | 74 | 1008.3 |
| 20260506121510 | 62 | 205 | 3.0 | 8.0 | 0.00 | 0.00 | 0.00 | 76 | 1008.2 |
| 20260506120021 | 61 | 63 | 1.0 | 10.0 | 0.00 | 0.00 | 0.00 | 77 | 1008.3 |